Temperature
26 26 26 27 28 28 28 28 27 28 28 28 27 26 25 25 24 23 22 21 20 18 17 16 15 15 15 15 15 15 16 16 16 16 15 15 15 15 15 15 15 15 15 15
26 26 28 29 29 28 28 28 28 28 28 28 27 26 26 25 24 23 22 21 20 18 17 16 15 14 14 14 14 14 15 15 15 15 15 15 15 14 14 14 14 14 14 14
26 27 28 28 28 27 27 27 27 27 27 28 26 26 25 25 24 23 22 21 20 18 17 15 15 14 13 13 13 14 14 14 14 14 14 14 14 14 14 14 14 14 14 14
27 28 28 27 27 27 26 28 27 27 26 26 26 24 24 24 24 23 22 20 19 18 16 15 14 14 13 13 13 13 13 14 14 14 14 14 13 13 13 13 13 13 13 13
27 28 27 27 27 28 27 28 28 27 26 26 25 24 23 23 22 22 21 20 19 17 16 15 14 13 13 12 12 12 13 13 13 13 13 13 13 12 12 12 12 12 12 12
27 28 28 28 28 28 28 28 27 27 26 24 24 23 22 22 22 22 20 19 18 17 16 14 14 13 12 12 12 12 12 12 12 12 12 12 12 12 12 12 12 12 12 12
26 27 28 28 27 28 27 26 24 23 22 22 22 22 22 23 23 22 20 18 17 16 15 14 13 13 12 11 11 11 11 11 11 11 11 11 11 11 11 11 11 11 11 11
24 25 27 28 27 26 26 26 23 22 21 21 21 21 21 23 23 21 20 18 17 16 15 14 13 12 12 11 11 11 10 10 10 10 11 11 11 10 11 10 10 10 10 10
24 24 27 28 28 28 26 26 26 25 24 22 22 21 21 21 21 20 19 18 16 16 15 14 13 12 11 11 10 10 10 10 10 10 10 10 10 10 10 10 10 10 10 10
25 24 26 27 28 28 27 27 26 24 22 22 22 21 20 19 20 20 19 18 16 15 14 13 12 11 11 10 10 10 9 9 9 9 9 9 9 9 9 9 9 9 9 9
26 25 25 26 26 26 26 26 25 25 24 22 21 21 21 20 20 19 19 17 16 15 14 12 12 11 11 10 10 9 9 9 9 9 9 9 9 9 9 8 8 8 8 8
26 25 24 25 26 26 26 26 25 23 23 23 22 21 22 21 20 20 18 17 16 14 13 12 11 11 10 10 9 9 8 8 8 8 8 8 8 8 8 8 8 8 8 8
24 23 22 22 23 24 24 25 25 25 24 23 22 20 21 21 20 19 18 16 15 13 12 12 11 10 10 9 9 8 8 8 8 8 8 8 8 8 7 7 7 8 8 8
23 22 22 21 21 21 22 24 25 24 23 23 22 21 20 20 19 17 16 15 14 13 12 11 10 10 9 9 9 8 8 8 8 7 7 7 7 7 7 7 7 7 7 7
23 22 22 23 23 23 23 24 24 24 24 23 23 22 20 19 19 17 15 14 13 12 11 11 10 10 9 9 8 8 8 7 7 7 7 7 7 7 7 7 7 7 7 7
22 22 22 22 23 24 24 24 24 24 24 23 23 21 20 19 17 16 15 14 13 12 11 10 10 9 9 8 8 8 7 7 7 7 7 7 7 7 7 7 7 6 6 6
22 21 21 21 23 23 22 23 23 23 23 23 21 20 20 18 17 16 15 14 12 11 11 10 9 9 8 8 8 7 7 7 7 7 7 7 6 7 6 6 6 6 6 6
21 20 20 21 22 20 21 23 23 23 22 22 21 20 19 18 16 15 14 13 12 11 10 9 9 8 8 8 7 7 7 7 7 7 7 7 6 6 6 6 6 6 6 6
21 20 20 21 20 21 21 22 22 21 20 21 20 19 18 16 15 14 13 12 11 10 9 9 9 8 8 7 7 7 7 7 7 7 7 6 6 6 6 6 6 6 6 6
22 21 20 20 20 19 19 21 21 21 19 19 19 18 17 17 16 14 12 11 10 10 9 9 8 8 7 7 7 7 7 7 7 6 6 6 6 6 6 6 6 6 6 6
21 20 20 20 19 19 19 21 21 19 18 19 18 17 17 16 15 13 11 10 10 9 9 8 8 8 7 7 7 7 7 7 7 6 6 6 6 6 6 6 6 6 6 6
20 20 20 19 19 18 19 20 19 18 18 18 17 16 15 14 13 12 11 10 9 9 8 8 8 7 7 7 7 7 7 7 6 6 6 6 6 6 6 6 6 6 6 6
20 19 19 18 18 18 18 18 18 18 18 17 17 15 14 13 12 11 10 9 9 9 8 8 8 7 7 7 7 7 7 6 6 6 6 6 6 6 6 6 6 6 6 6
20 20 20 18 18 19 18 18 18 17 17 16 16 15 14 12 11 11 10 9 9 8 8 8 8 7 7 7 7 7 7 6 6 6 6 6 6 6 6 6 6 6 7 7
19 20 19 18 19 19 18 17 17 16 16 16 15 14 13 12 11 10 10 9 9 8 8 8 8 8 7 7 7 7 7 7 7 7 7 7 7 7 6 7 6 6 7 7
19 19 18 18 18 18 17 17 16 16 15 15 14 14 13 12 11 10 10 9 9 8 8 8 8 8 7 7 7 7 7 7 7 7 7 7 7 7 7 7 7 7 7 7
Wind_Speed
12 13 13 14 15 12 10 10 11 10 10 9 10 14 14 13 11 11 10 10 10 11 11 9 9 9 9 8 7 7 7 6 5 4 3 2 3 3 3 4 6 6 6 6
12 15 13 10 8 9 7 7 7 9 10 8 8 12 14 14 13 12 12 11 10 10 10 9 9 9 10 9 8 8 7 7 6 4 3 2 2 2 2 3 4 5 6 6
12 8 7 6 7 8 8 6 4 4 7 9 10 12 14 13 11 11 11 11 10 10 9 9 9 9 9 9 9 8 8 8 7 5 3 3 2 2 2 3 3 5 6 6
9 6 7 9 9 9 7 6 6 8 9 8 10 9 12 14 12 11 10 10 11 11 10 9 9 9 9 8 8 9 8 8 7 6 6 5 4 3 3 3 3 3 5 6
7 8 8 9 9 8 6 7 9 10 11 10 9 8 8 13 12 11 10 10 11 11 11 9 9 8 8 8 8 8 8 8 7 7 6 5 5 4 3 3 4 3 4 5
9 7 7 8 7 7 6 8 9 9 9 11 6 7 6 9 13 13 11 10 11 11 11 10 9 8 8 8 8 8 7 7 7 6 6 5 5 4 4 4 4 3 3 4
9 9 8 7 7 7 8 8 5 6 6 7 6 6 4 10 12 15 16 14 12 12 11 10 9 8 8 8 8 7 7 7 6 6 6 6 5 4 5 4 4 4 4 4
6 7 8 9 9 7 9 10 7 6 6 5 5 3 2 7 10 15 16 15 14 12 11 9 9 8 7 7 7 7 7 6 6 6 6 6 5 4 4 5 5 5 4 4
5 6 8 10 9 8 9 9 9 10 9 5 3 4 5 7 9 13 15 14 14 12 11 10 9 8 7 7 6 7 6 6 6 6 6 6 6 6 5 5 5 4 4 4
6 5 7 9 9 10 9 8 6 6 6 6 4 4 5 9 10 11 13 13 13 13 12 11 9 8 8 7 7 7 6 6 6 6 6 6 6 6 5 5 5 5 5 5
6 6 7 7 7 7 7 8 7 7 7 6 5 1 5 9 9 11 12 13 13 13 12 11 9 9 8 7 7 6 6 6 6 6 6 6 6 6 6 5 5 5 5 5
5 5 7 7 6 7 8 8 7 6 7 6 5 0 5 8 10 12 13 13 13 13 12 11 10 9 8 7 7 6 5 5 5 5 5 5 5 6 6 6 6 5 5 5
6 4 6 6 5 7 8 8 7 7 7 6 6 1 4 5 7 9 12 13 13 13 12 10 9 8 7 7 7 6 5 5 5 5 5 5 5 6 6 6 6 5 5 5
3 5 7 8 6 5 7 9 8 7 7 6 5 2 5 7 9 9 11 13 13 12 11 10 9 8 7 7 7 5 5 4 4 5 5 5 5 5 5 5 5 5 5 5
3 7 9 9 10 8 10 9 8 8 8 6 5 2 5 6 9 10 11 12 13 11 10 10 9 8 7 7 6 5 5 4 5 5 5 5 4 4 4 5 5 5 5 5
2 6 9 10 11 10 9 7 7 7 6 5 3 3 7 10 11 10 11 12 12 12 10 9 9 8 7 7 6 6 5 4 4 4 4 4 4 4 4 4 4 5 6 6
4 5 8 9 9 7 6 5 5 3 3 4 3 5 9 9 10 10 11 12 12 12 11 10 9 8 7 6 6 5 5 4 4 4 4 4 3 4 4 4 4 5 5 5
5 6 6 7 8 5 1 3 5 4 5 6 7 8 8 10 10 9 10 12 12 11 10 10 9 9 7 7 6 5 5 4 4 4 3 3 4 4 4 4 5 4 4 4
6 6 6 5 6 3 2 5 5 4 6 9 8 9 10 12 12 9 9 11 12 12 11 9 9 9 7 6 6 5 5 4 5 5 4 5 5 5 4 5 4 4 3 3
7 6 6 6 6 3 3 6 5 1 3 7 7 8 8 7 5 6 10 12 13 12 11 10 9 9 8 7 6 5 5 5 5 5 5 5 5 4 4 4 4 3 3 3
4 5 7 8 5 0 6 8 5 2 3 4 5 6 6 3 6 12 14 13 13 12 12 11 10 8 7 7 6 5 5 5 4 4 4 4 4 3 4 3 3 2 3 3
2 2 3 4 3 1 8 6 6 4 2 3 6 8 10 12 15 15 15 14 13 12 11 10 9 8 7 7 6 6 5 5 5 5 4 4 3 3 4 3 2 2 2 2
2 3 2 2 2 4 6 6 4 2 3 5 7 11 13 13 15 15 14 13 13 12 11 9 10 9 8 7 6 7 5 5 5 5 4 4 4 3 3 2 2 2 1 2
2 3 1 3 4 4 6 6 6 6 7 8 9 11 12 14 14 14 14 13 11 11 10 10 10 9 8 7 7 7 6 4 5 5 4 4 4 4 4 3 4 4 5 4
5 4 1 2 2 3 7 7 7 7 7 8 9 10 12 14 14 14 13 12 11 10 9 9 9 9 9 8 7 7 6 5 4 4 3 3 4 5 4 5 5 6 6 5
3 3 2 2 2 2 4 4 6 6 6 7 9 11 12 13 14 14 12 11 11 10 9 9 9 9 9 8 8 7 5 5 4 3 3 3 3 4 4 5 5 7 6 6
Wind_Direction
208 224 223 215 220 247 245 215 190 182 180 206 187 163 163 167 165 154 149 140 129 116 108 100 91 81 69 61 61 55 51 45 42 39 38 48 50 42 44 47 37 30 18 3
210 224 231 225 221 253 252 231 191 167 174 203 198 179 169 174 177 164 156 149 140 126 112 100 90 81 71 58 51 53 45 43 42 38 33 57 66 57 50 41 46 29 21 10
224 218 199 221 219 235 244 241 226 194 196 203 209 199 177 175 174 162 154 148 142 133 119 108 93 81 73 62 51 48 42 36 36 29 37 51 61 61 44 42 48 35 25 22
227 220 191 209 217 223 237 245 232 216 218 221 216 224 195 178 177 165 155 149 140 129 117 108 96 85 76 71 63 56 48 41 36 34 40 38 41 40 24 25 41 43 36 26
221 204 203 212 221 223 234 232 236 238 237 246 225 236 202 172 180 175 163 153 139 128 120 111 99 91 84 77 69 60 54 48 41 40 43 39 36 26 20 22 30 32 41 31
238 211 214 228 218 228 242 239 245 254 253 248 255 251 208 187 187 170 154 145 137 129 121 114 108 97 85 77 71 63 58 52 45 45 48 45 37 28 25 21 16 16 36 33
220 215 216 232 228 223 248 252 251 253 257 260 276 263 200 177 165 157 156 155 146 135 129 126 116 101 89 79 73 66 62 57 47 42 41 36 31 37 33 17 19 20 30 30
244 221 216 217 227 224 233 248 251 257 250 247 237 253 133 130 135 143 146 146 141 138 134 126 113 103 93 83 74 70 64 58 50 46 42 35 26 30 33 32 27 27 23 22
251 240 226 231 231 241 244 247 261 274 275 268 204 158 142 125 128 133 140 144 143 141 134 125 116 109 101 92 80 74 68 60 54 47 44 44 37 33 29 29 27 26 20 17
251 253 241 232 232 231 249 263 272 276 278 282 248 183 165 156 158 146 146 148 146 141 132 125 120 113 105 98 89 76 70 60 53 49 40 43 36 33 30 31 33 30 23 17
263 261 254 244 245 254 252 256 271 282 289 292 291 19 137 163 163 158 153 151 149 140 134 131 126 119 112 105 98 90 79 68 58 52 46 39 32 32 36 36 30 27 23 17
297 285 275 268 282 289 267 259 263 269 282 284 291 62 121 148 168 158 152 146 139 132 130 129 128 122 117 109 99 89 79 69 64 61 57 49 42 39 38 34 28 24 22 19
337 306 280 276 293 298 280 272 273 280 283 282 284 229 135 134 122 129 137 136 132 130 129 128 125 122 117 108 100 93 81 69 62 67 64 57 46 41 39 35 35 31 27 27
308 279 272 260 260 255 264 271 278 277 279 285 281 197 152 134 124 128 134 135 134 134 134 130 126 121 113 109 106 99 87 73 66 65 61 55 48 43 41 38 36 37 37 39
299 268 268 260 259 252 260 265 274 279 284 288 300 70 131 128 128 129 137 140 138 138 139 136 133 127 123 119 114 104 90 75 66 65 61 55 49 45 46 43 35 28 33 49
302 288 283 270 262 262 269 283 281 281 302 315 334 78 108 117 122 135 144 145 142 143 142 139 134 129 128 124 121 111 102 92 78 73 71 65 54 49 50 55 47 39 37 40
293 294 292 284 282 286 288 313 315 315 349 352 19 92 117 121 130 139 143 144 143 146 145 141 133 129 126 123 118 116 113 102 88 79 71 69 65 59 49 56 56 49 43 43
277 289 280 277 287 270 308 345 357 23 45 56 82 96 103 114 118 121 131 137 138 140 138 134 130 126 124 121 120 121 113 102 91 82 70 65 67 65 50 52 54 51 49 48
223 261 275 279 280 271 4 1 7 19 46 43 75 91 102 113 112 105 118 127 130 132 130 129 131 129 129 127 128 122 106 101 93 83 75 65 58 60 53 54 51 57 62 56
204 222 253 269 279 282 8 351 350 327 69 47 78 103 117 134 136 132 128 125 126 127 128 130 131 129 131 131 128 117 110 100 88 81 75 72 66 66 63 57 51 52 55 60
224 222 243 260 265 347 346 339 341 353 51 48 82 104 119 114 94 125 128 126 128 129 130 132 132 132 133 130 125 118 112 108 102 92 85 80 71 74 75 61 50 51 57 63
297 276 271 280 265 298 1 21 47 60 52 67 92 102 102 103 113 123 127 128 130 131 133 134 131 129 131 131 129 118 111 113 106 97 92 84 69 64 78 75 51 57 81 103
357 10 8 40 59 73 48 59 69 72 77 87 99 110 116 120 126 128 130 132 135 136 136 135 133 131 133 133 131 120 118 117 111 107 96 92 80 65 63 63 69 72 59 68
349 2 48 87 79 79 70 64 56 64 82 92 107 119 126 127 131 134 134 135 136 136 137 141 140 139 136 134 132 126 129 127 117 114 112 112 106 90 63 45 46 48 39 37
331 334 32 92 77 87 61 61 69 74 90 103 111 119 127 132 135 136 136 138 138 139 143 146 144 144 141 139 136 137 132 127 127 129 133 129 115 100 84 67 47 55 55 51
347 351 6 30 43 46 69 67 87 92 97 112 119 122 128 135 137 139 139 139 140 141 142 142 144 142 143 143 142 144 141 142 147 155 158 150 143 146 141 124 98 59 71 74
Height
1482 1481 1477 1472 1469 1467 1465 1468 1474 1473 1471 1475 1481 1487 1491 1496 1499 1503 1508 1513 1517 1521 1524 1525 1526 1527 1527 1528 1528 1529 1530 1531 1532 1533 1534 1534 1535 1535 1536 1536 1536 1536 1536 1536
1478 1477 1468 1464 1464 1466 1465 1468 1470 1470 1470 1475 1481 1484 1487 1493 1497 1501 1506 1511 1515 1519 1523 1525 1526 1527 1527 1528 1528 1529 1529 1530 1531 1532 1533 1534 1534 1535 1536 1535 1535 1535 1535 1534
1474 1467 1464 1466 1468 1471 1470 1471 1473 1476 1474 1474 1481 1487 1487 1491 1495 1500 1505 1510 1514 1518 1521 1524 1526 1528 1528 1528 1528 1529 1529 1529 1530 1531 1532 1533 1533 1534 1534 1534 1534 1533 1533 1532
1469 1465 1466 1469 1470 1471 1476 1468 1470 1473 1480 1483 1483 1497 1490 1490 1495 1500 1506 1511 1515 1519 1522 1525 1527 1528 1529 1529 1529 1529 1529 1529 1530 1531 1531 1532 1533 1533 1533 1533 1533 1532 1531 1531
1468 1465 1467 1470 1468 1468 1471 1467 1468 1471 1476 1481 1482 1493 1493 1489 1497 1501 1507 1512 1516 1519 1523 1526 1528 1529 1530 1530 1529 1529 1529 1529 1530 1530 1531 1531 1532 1532 1532 1532 1532 1532 1531 1530
1465 1462 1464 1465 1464 1465 1465 1468 1470 1472 1477 1493 1491 1495 1499 1492 1493 1498 1506 1512 1515 1519 1522 1525 1528 1529 1530 1530 1530 1530 1530 1530 1530 1530 1531 1531 1531 1531 1532 1532 1531 1531 1530 1529
1468 1464 1463 1464 1466 1467 1468 1477 1493 1499 1503 1503 1494 1495 1495 1485 1486 1493 1503 1510 1515 1519 1522 1525 1528 1529 1530 1531 1530 1530 1530 1530 1530 1530 1530 1530 1531 1531 1531 1531 1531 1530 1529 1528
1479 1477 1466 1463 1467 1471 1473 1476 1495 1509 1510 1506 1499 1501 1494 1486 1488 1494 1501 1508 1513 1518 1522 1525 1527 1529 1530 1531 1531 1531 1531 1531 1530 1530 1530 1531 1531 1531 1531 1531 1530 1530 1529 1528
1480 1479 1464 1462 1462 1464 1471 1473 1471 1481 1486 1496 1498 1496 1495 1491 1494 1498 1503 1508 1513 1517 1521 1524 1527 1529 1530 1531 1531 1532 1531 1531 1531 1531 1531 1531 1531 1531 1531 1530 1530 1529 1529 1528
1471 1480 1468 1463 1461 1462 1464 1467 1473 1484 1498 1502 1495 1495 1499 1498 1499 1499 1504 1508 1512 1517 1521 1524 1527 1529 1531 1532 1532 1533 1533 1532 1532 1532 1532 1532 1532 1531 1531 1530 1530 1529 1528 1528
1466 1476 1472 1466 1468 1469 1468 1469 1472 1476 1478 1495 1503 1501 1488 1492 1494 1497 1502 1508 1511 1516 1520 1524 1527 1530 1531 1532 1533 1533 1534 1534 1534 1533 1533 1532 1532 1532 1531 1531 1530 1529 1528 1528
1467 1473 1477 1472 1466 1464 1465 1468 1473 1485 1486 1484 1492 1501 1484 1488 1491 1495 1500 1506 1511 1516 1520 1524 1527 1530 1532 1533 1534 1534 1535 1535 1535 1534 1534 1533 1533 1532 1532 1531 1530 1529 1529 1528
1474 1479 1489 1488 1484 1476 1473 1468 1468 1472 1477 1484 1493 1500 1487 1489 1492 1496 1502 1507 1512 1516 1521 1524 1527 1530 1532 1533 1534 1535 1535 1536 1536 1535 1535 1534 1534 1533 1533 1532 1531 1530 1529 1528
1479 1483 1491 1498 1492 1486 1483 1475 1470 1474 1482 1484 1486 1490 1489 1490 1495 1501 1505 1509 1514 1518 1521 1525 1528 1530 1532 1534 1535 1536 1536 1536 1537 1536 1536 1536 1535 1534 1534 1533 1532 1531 1531 1530
1479 1484 1481 1480 1476 1476 1475 1472 1471 1473 1473 1480 1480 1484 1487 1491 1495 1501 1506 1511 1515 1519 1522 1526 1528 1530 1532 1534 1535 1536 1537 1538 1538 1538 1537 1537 1536 1536 1535 1535 1534 1533 1532 1531
1480 1483 1482 1480 1474 1472 1473 1470 1470 1472 1473 1474 1478 1485 1486 1492 1498 1503 1507 1512 1516 1520 1523 1526 1529 1531 1533 1535 1536 1537 1538 1539 1539 1539 1539 1538 1538 1538 1537 1536 1535 1535 1534 1533
1482 1485 1487 1485 1474 1473 1480 1475 1473 1473 1473 1477 1482 1487 1488 1494 1499 1503 1507 1511 1516 1519 1523 1527 1529 1531 1533 1535 1537 1538 1539 1540 1540 1540 1540 1540 1540 1539 1539 1538 1537 1537 1536 1535
1486 1487 1487 1485 1484 1495 1484 1473 1473 1474 1476 1478 1482 1486 1490 1495 1500 1505 1508 1512 1516 1520 1524 1527 1529 1531 1534 1536 1537 1539 1540 1541 1541 1541 1541 1541 1541 1541 1541 1540 1539 1539 1538 1537
1482 1486 1487 1487 1490 1487 1481 1477 1478 1481 1485 1484 1486 1490 1495 1498 1503 1508 1511 1513 1517 1521 1525 1528 1530 1532 1534 1536 1538 1540 1541 1542 1542 1543 1543 1543 1543 1542 1542 1541 1541 1540 1540 1539
1479 1483 1488 1487 1494 1498 1491 1481 1479 1481 1491 1490 1490 1493 1496 1498 1502 1510 1513 1515 1519 1522 1525 1528 1531 1533 1535 1538 1539 1541 1542 1543 1544 1544 1544 1544 1544 1543 1543 1543 1543 1542 1542 1542
1482 1485 1488 1488 1492 1493 1489 1482 1481 1493 1499 1494 1494 1496 1497 1500 1503 1510 1513 1517 1520 1524 1527 1529 1532 1534 1537 1539 1540 1542 1543 1544 1545 1545 1546 1546 1545 1545 1545 1545 1545 1544 1544 1544
1485 1487 1488 1488 1494 1500 1490 1485 1491 1497 1495 1495 1496 1498 1500 1504 1507 1511 1515 1519 1522 1525 1528 1531 1533 1536 1538 1540 1542 1543 1545 1546 1547 1547 1547 1547 1547 1547 1547 1547 1547 1547 1546 1546
1485 1488 1489 1493 1498 1495 1493 1493 1494 1495 1495 1496 1498 1501 1503 1506 1510 1513 1517 1520 1524 1527 1530 1533 1535 1537 1540 1542 1543 1545 1546 1548 1548 1549 1549 1549 1549 1549 1549 1549 1549 1549 1549 1549
1486 1486 1487 1491 1493 1493 1495 1495 1496 1496 1498 1499 1501 1503 1506 1509 1512 1516 1519 1523 1526 1529 1531 1534 1537 1539 1541 1543 1545 1547 1548 1549 1550 1551 1551 1552 1552 1552 1552 1551 1551 1551 1551 1551
1490 1488 1489 1492 1493 1494 1496 1497 1498 1499 1500 1502 1504 1506 1508 1511 1514 1517 1521 1524 1527 1530 1533 1536 1538 1541 1543 1545 1547 1548 1550 1551 1551 1552 1553 1554 1554 1554 1554 1554 1553 1553 1553 1552
1491 1492 1493 1495 1495 1496 1498 1499 1500 1501 1502 1504 1506 1508 1511 1513 1516 1519 1523 1526 1529 1532 1535 1537 1540 1542 1544 1546 1548 1550 1551 1552 1553 1554 1555 1556 1556 1556 1556 1556 1556 1555 1555 1555